GEFSSE_con_probscp_300.txt.gz
Probability
0 1 3 5 4 2 2 2 1 2 3 2 1 0 0 0 0 1 1 0 0 0 0 0 0 0 0 0 1 3 3 1 0 0 0 0 0 0 1 2 4 3 1
0 1 3 5 4 2 1 1 1 1 3 2 1 0 0 0 1 2 2 1 0 0 0 0 0 0 0 0 1 3 3 1 0 0 0 0 0 0 0 1 2 2 1
0 0 2 4 3 1 0 1 1 1 2 2 1 1 1 1 1 3 4 3 1 0 0 0 0 0 0 0 1 3 3 2 0 0 0 0 0 1 1 0 0 0 1
0 0 1 2 2 1 1 1 1 1 1 1 1 1 2 2 3 3 4 3 2 1 1 1 1 1 1 1 1 1 2 1 0 0 0 0 1 2 2 1 0 0 0
0 0 0 1 2 2 1 2 2 1 0 0 1 2 3 3 3 3 3 3 3 3 3 4 4 3 3 3 2 1 1 2 1 1 0 0 1 2 3 2 0 0 0
0 0 0 0 1 2 2 2 2 1 0 0 0 2 3 3 2 2 3 3 4 4 4 5 6 6 6 5 4 2 3 4 3 2 0 0 1 3 3 1 0 0 0
0 0 0 0 0 1 2 2 1 0 0 0 0 1 2 1 1 2 3 4 5 5 5 6 6 6 6 6 5 5 6 7 5 2 1 1 2 3 2 1 0 0 0
0 0 0 0 0 1 1 1 1 0 0 0 1 1 1 1 2 3 4 5 6 6 5 5 5 5 5 6 7 7 8 9 6 3 2 2 3 3 1 0 0 0 0
0 0 0 0 0 1 1 2 2 1 0 1 2 2 2 2 3 4 4 5 6 5 4 4 3 2 3 6 8 9 10 9 6 3 2 2 3 2 1 0 0 0 0
0 0 0 0 0 1 2 3 3 2 1 2 3 3 3 3 3 3 3 4 4 4 3 3 2 2 3 6 9 11 11 8 4 2 1 2 2 1 1 0 0 0 0
0 0 0 0 0 0 1 2 2 2 1 2 3 3 3 3 3 2 2 2 3 3 3 3 4 5 6 7 9 10 9 5 2 1 1 2 2 2 1 0 0 0 1
1 0 0 0 0 0 0 1 1 1 1 2 2 2 2 2 2 1 1 2 2 2 2 3 5 7 8 7 8 8 6 2 0 0 1 2 2 2 1 0 0 1 2
2 1 0 0 0 0 0 0 0 0 0 1 1 1 1 1 1 0 1 1 1 1 1 1 3 5 5 5 5 4 2 0 0 0 0 1 1 1 0 0 0 1 2
4 1 0 0 0 0 0 0 0 0 0 0 0 0 0 0 0 0 0 0 0 0 0 0 1 1 2 2 2 1 0 0 0 0 0 0 0 0 0 0 1 1 2
3 1 0 0 0 0 0 0 0 0 0 0 0 0 0 0 0 1 1 1 0 0 0 0 0 0 0 0 0 0 0 0 0 0 0 0 1 0 0 1 2 3 3
2 1 0 1 1 0 0 0 0 0 0 0 0 0 0 0 0 1 1 1 0 0 0 0 0 0 0 0 0 0 0 0 0 0 0 1 2 1 0 2 3 3 3
2 1 1 2 2 1 1 1 0 0 0 0 0 0 0 0 0 0 0 0 0 0 0 0 0 0 0 0 0 0 0 0 0 0 0 0 1 1 2 4 4 4 4
3 3 4 5 4 3 3 2 1 0 0 0 0 0 0 0 0 0 1 1 1 1 1 1 1 1 1 0 0 0 0 0 0 0 0 0 0 1 3 6 7 6 6
5 6 6 6 5 5 3 2 1 0 0 0 0 0 0 0 0 0 1 2 2 2 2 2 2 2 2 1 0 0 0 0 0 0 0 0 1 2 4 7 8 7 7
6 6 7 6 5 4 3 1 0 0 0 0 0 1 1 1 1 1 1 3 3 4 4 3 3 3 3 2 1 0 0 0 0 0 0 0 1 3 5 7 8 7 7
7 7 7 6 4 3 3 1 1 1 1 1 1 2 3 3 2 1 2 3 4 5 4 4 4 4 4 4 4 2 1 1 0 0 1 1 1 3 5 6 7 8 8
9 8 7 6 5 5 5 3 3 3 2 2 2 3 4 4 3 4 5 7 7 7 7 8 8 7 6 6 6 4 3 2 1 1 2 2 3 3 3 4 6 8 8
11 10 7 6 7 8 7 5 4 4 3 2 3 3 3 4 5 6 8 10 10 10 10 10 11 10 9 8 8 6 4 3 3 2 2 2 2 2 1 1 3 6 7
15 13 9 7 8 8 7 6 5 5 4 3 3 3 3 3 5 7 9 10 11 11 11 11 11 11 11 11 10 8 5 4 3 3 2 2 1 1 0 0 1 3 4
20 17 11 7 8 8 7 6 6 5 5 5 4 4 3 3 4 6 8 9 10 11 12 11 11 11 13 14 13 10 7 6 5 4 3 2 0 0 0 0 0 1 1
20 19 13 8 8 8 7 6 6 5 6 6 5 5 4 3 4 6 7 8 9 11 12 12 11 12 13 14 13 11 9 8 7 4 3 1 0 0 0 0 0 0 0

GEFSSE_con_probscp_306.txt.gz
Probability
0 1 2 3 3 3 3 3 3 3 1 0 0 0 0 0 0 0 0 0 0 0 0 0 0 0 0 0 1 2 2 1 0 0 0 0 0 0 0 0 0 1 1
0 1 2 3 3 3 3 3 3 3 2 1 0 1 1 1 1 1 1 1 0 0 0 0 0 0 0 0 1 2 2 1 0 0 0 0 0 0 0 0 0 0 1
0 0 1 2 1 1 2 2 3 3 3 2 1 2 3 3 2 2 2 2 1 1 1 1 0 0 0 0 0 1 1 1 0 0 0 0 0 0 0 0 0 0 0
0 0 0 0 0 0 1 1 1 2 3 2 2 3 4 3 3 3 3 3 2 1 1 1 0 0 0 0 0 0 1 1 0 0 0 0 0 0 0 0 0 0 0
0 0 0 0 0 0 0 0 0 1 2 2 1 2 3 3 3 3 3 3 3 1 1 1 1 0 0 0 0 1 1 1 0 0 0 0 0 0 0 0 1 1 0
0 0 0 0 0 0 1 1 1 0 1 1 1 2 2 3 3 3 2 3 3 3 2 2 2 1 1 1 1 2 1 0 0 0 0 0 0 0 0 1 2 1 1
0 0 0 0 0 0 1 3 3 1 0 0 0 1 1 1 2 1 1 2 3 4 3 3 3 3 2 2 3 4 3 1 0 0 0 0 0 0 0 1 2 1 0
0 0 0 0 1 0 1 3 4 3 1 1 0 0 1 1 1 1 2 3 3 4 4 4 3 3 3 3 5 6 5 3 1 1 1 0 1 1 1 1 1 1 0
0 0 0 0 0 0 0 2 4 4 3 2 0 0 1 1 2 3 3 3 3 4 4 4 4 4 3 4 7 9 8 5 3 2 2 1 1 2 1 0 0 0 0
0 0 0 0 0 0 0 1 2 2 3 2 0 0 1 2 2 3 3 3 3 3 3 5 6 5 5 6 8 10 10 7 5 3 2 1 2 2 1 0 0 0 0
0 0 0 0 0 0 0 0 0 1 2 1 0 0 1 1 1 1 2 2 3 3 3 5 7 7 6 6 9 10 10 8 4 2 1 1 2 2 1 0 0 0 0
0 0 0 0 0 0 0 1 1 1 1 1 0 0 0 0 0 0 1 1 1 2 3 4 6 6 6 5 6 8 8 5 3 1 0 1 2 2 1 0 0 0 0
0 0 0 0 0 0 1 2 2 2 2 2 1 0 0 0 0 0 0 0 0 1 1 3 3 3 3 3 2 3 4 3 1 0 0 1 3 3 1 0 0 0 0
0 0 0 0 0 0 1 2 2 2 2 2 1 0 0 0 0 0 0 1 1 0 0 1 1 1 2 2 1 1 2 2 1 0 0 2 3 3 2 1 0 0 0
0 0 0 0 0 0 0 1 1 1 1 1 0 0 0 0 0 0 1 2 2 1 0 0 0 1 1 1 0 0 1 1 1 0 0 1 2 2 2 2 1 0 0
0 0 0 0 0 0 0 0 0 0 0 0 0 0 0 0 0 1 2 3 2 1 0 0 0 0 0 0 0 0 0 0 0 0 0 0 0 1 1 2 3 2 1
1 0 0 0 0 0 0 0 0 0 0 0 0 0 0 0 0 1 2 2 1 0 0 0 0 0 0 1 1 1 0 0 0 0 0 0 0 0 0 2 4 4 3
2 1 0 0 0 0 0 0 0 0 0 0 0 0 0 0 0 0 1 1 0 0 0 0 0 1 1 2 2 2 1 1 1 0 0 0 0 0 0 1 3 4 4
2 1 0 0 0 0 0 0 0 0 0 0 0 0 1 1 1 1 2 1 1 1 1 1 2 3 3 3 3 3 2 2 2 1 1 0 0 0 0 1 3 4 5
1 1 1 1 0 0 0 0 0 0 0 0 0 0 1 2 3 4 5 4 4 3 3 3 5 5 5 4 4 3 3 3 3 3 3 1 1 0 0 0 2 5 6
3 3 2 2 1 0 0 0 0 0 0 0 0 0 1 1 3 5 6 6 5 5 5 5 6 7 7 7 6 5 4 4 4 5 5 4 3 2 1 1 3 5 6
5 4 3 2 1 1 0 0 0 0 0 0 0 0 0 0 2 5 5 4 4 4 5 6 7 9 9 9 8 7 5 5 5 5 6 5 5 4 3 3 4 4 5
5 4 3 2 2 2 1 1 1 0 0 0 0 0 0 1 3 4 4 4 4 5 6 7 8 10 10 9 8 7 6 5 5 4 4 5 5 4 3 3 3 3 4
5 4 3 3 3 4 3 3 3 1 0 0 0 0 1 2 3 4 4 5 7 8 8 9 10 10 11 10 9 7 7 7 6 4 4 5 4 3 3 3 3 3 3
6 5 4 3 4 5 6 6 5 3 1 0 0 1 2 3 4 4 5 7 8 9 10 10 10 11 11 11 10 9 9 9 8 6 5 5 5 4 3 3 3 2 2
7 7 5 4 5 6 6 6 6 3 1 0 1 2 4 5 5 6 6 7 8 9 10 10 10 11 11 11 10 9 9 10 9 7 5 4 5 5 4 3 2 1 1

GEFSSE_con_probscp_312.txt.gz
Probability
0 0 0 0 1 2 2 1 1 1 0 1 2 2 1 0 0 0 0 0 0 0 0 0 0 0 0 0 1 2 3 3 3 3 2 2 1 0 0 0 0 0 1
0 0 0 0 0 1 1 1 2 2 1 0 1 1 0 0 0 0 0 0 0 0 0 0 0 0 0 0 1 2 3 3 3 3 1 1 0 0 0 0 0 1 2
0 0 0 0 0 0 0 1 1 1 1 0 0 0 0 0 0 0 0 0 0 0 0 1 1 0 0 0 1 1 2 3 3 2 1 0 0 0 0 0 0 1 2
0 0 1 2 1 0 0 0 0 0 0 0 0 0 0 0 0 0 0 0 0 0 0 1 1 0 0 0 1 2 1 2 2 2 1 0 0 0 1 0 0 0 1
0 0 1 2 1 0 0 0 0 0 0 0 0 0 0 1 1 1 1 0 0 0 0 0 0 0 1 1 2 2 1 1 1 1 0 0 0 0 0 0 0 0 1
0 0 0 1 0 0 0 0 1 1 0 0 0 0 0 1 2 2 2 1 1 1 1 1 1 1 2 2 3 3 2 0 0 0 0 0 0 0 0 0 0 0 1
0 0 0 0 0 0 0 0 1 1 0 0 0 0 0 1 2 3 3 3 2 2 2 3 3 3 3 3 3 3 3 1 0 0 0 0 0 0 0 0 0 1 1
0 0 0 0 0 0 0 0 1 1 1 1 0 0 0 0 1 2 3 3 3 3 3 4 4 4 3 2 2 3 2 1 0 0 0 0 1 1 0 0 1 1 2
0 0 0 0 1 1 1 1 1 1 2 2 1 0 0 1 1 2 3 3 3 2 2 3 3 3 2 2 2 3 2 0 0 0 0 0 2 2 1 0 0 1 2
0 0 0 1 1 1 1 2 2 2 3 3 2 1 1 1 2 2 2 2 2 2 2 2 2 2 2 2 3 3 2 1 1 0 0 0 1 1 0 0 0 1 2
0 1 1 1 1 1 1 1 2 2 3 4 4 3 2 1 1 1 1 1 2 2 2 2 3 3 2 2 2 2 2 2 2 1 0 1 1 1 1 1 1 1 1
0 1 1 1 1 1 1 2 2 3 4 5 5 4 3 1 1 1 1 1 1 2 2 3 3 3 2 2 1 1 1 3 4 3 2 2 3 3 2 1 2 2 2
0 0 0 1 1 2 2 3 4 6 8 7 6 5 4 3 3 2 2 2 1 1 1 1 2 1 1 2 2 1 1 4 6 7 6 5 3 3 3 3 4 5 5
1 0 1 1 2 4 5 5 7 9 10 9 8 5 4 4 4 3 3 3 3 2 1 1 1 1 1 2 2 3 3 5 8 9 9 8 5 3 4 4 5 6 5
1 1 2 2 3 5 8 9 10 11 12 12 10 7 5 4 4 3 4 4 4 4 5 4 3 4 4 3 3 4 5 6 8 9 9 9 6 5 4 4 5 5 5
1 1 2 2 2 4 8 10 10 11 13 13 10 8 6 5 4 4 4 5 6 8 9 9 7 8 7 5 5 6 7 8 8 9 9 8 6 6 5 4 4 5 5
0 0 1 1 0 2 6 9 9 8 10 11 9 8 6 4 4 4 5 7 9 11 12 11 9 8 9 9 9 9 10 10 10 10 10 8 6 6 7 6 6 7 8
0 0 0 0 1 3 8 10 9 8 8 8 8 7 6 4 3 4 6 9 11 12 11 10 9 8 9 10 11 11 10 10 10 12 12 10 7 6 8 9 10 11 12
0 0 0 1 2 5 10 13 11 10 9 8 7 7 6 4 3 4 7 10 10 10 9 8 8 8 7 8 9 8 8 7 8 11 12 11 9 8 8 10 12 13 14
0 0 1 3 5 6 9 11 11 11 10 9 7 6 5 4 3 4 6 8 7 6 5 6 6 6 7 8 7 6 5 6 7 10 11 11 10 9 9 9 10 12 13
1 1 2 4 6 7 7 7 8 9 10 10 8 6 4 3 3 3 4 5 5 5 5 6 6 7 8 10 9 7 7 7 8 9 10 11 10 9 9 9 10 10 11
5 4 5 6 8 8 7 6 7 9 11 10 8 6 4 3 3 3 4 4 4 6 8 9 9 9 10 11 10 9 9 10 10 10 10 10 9 8 8 9 11 11 11
7 7 8 8 9 10 9 7 7 9 11 10 8 6 4 3 3 4 4 4 6 8 11 12 12 12 12 11 11 10 10 10 10 10 10 10 10 8 7 7 9 12 13
8 9 10 11 12 12 11 9 8 9 9 8 6 5 4 3 3 4 5 6 8 10 12 13 13 12 12 12 12 11 10 10 11 11 12 11 11 9 7 6 7 9 11
10 10 12 14 15 14 13 12 11 11 10 8 6 5 4 4 4 5 6 7 8 10 12 12 11 11 11 12 12 12 11 10 11 11 11 11 11 11 9 7 6 7 8
12 12 13 16 18 16 14 14 14 14 12 10 7 6 5 4 5 6 6 6 6 8 11 11 10 9 10 11 12 12 11 10 11 11 10 9 10 11 10 8 7 6 6

GEFSSE_con_probscp_318.txt.gz
Probability
0 1 2 2 1 0 0 0 0 0 0 1 3 3 3 3 3 1 0 0 0 0 0 0 0 0 0 0 0 0 1 2 2 1 1 2 2 2 1 3 3 1 0
1 2 3 2 0 0 0 0 0 0 0 1 2 2 1 2 2 1 0 0 0 0 0 0 0 0 0 0 0 0 0 1 2 2 2 2 1 1 1 3 3 2 1
2 3 3 2 1 0 1 1 1 0 0 0 1 1 0 0 0 0 0 0 0 0 0 0 0 0 0 1 1 1 0 0 1 2 2 1 1 1 1 2 3 3 3
1 2 4 3 1 0 1 2 2 1 0 0 1 0 0 0 0 0 0 0 0 0 0 0 0 0 0 1 2 1 1 0 0 1 1 0 0 1 1 1 2 3 4
0 2 4 5 3 2 3 3 2 1 0 0 0 0 0 0 0 0 1 1 0 0 0 0 0 0 0 1 1 1 1 0 0 0 0 0 1 2 2 1 1 2 3
0 1 4 6 6 5 5 4 2 0 0 0 0 0 0 0 0 1 1 2 1 1 1 1 1 0 0 1 1 1 1 1 0 0 0 1 3 5 4 2 1 1 1
0 1 4 6 7 7 7 5 3 1 0 0 0 0 0 0 1 1 2 3 4 3 3 2 2 1 1 2 2 2 1 1 0 0 1 1 4 6 5 3 2 1 0
1 2 4 7 8 9 8 7 4 1 1 0 0 0 1 1 1 3 4 6 7 6 5 4 3 3 3 3 3 4 3 2 1 1 1 2 4 6 6 4 4 3 1
0 1 3 5 7 8 9 8 5 3 2 1 0 0 2 2 3 5 7 9 9 8 7 5 4 3 3 4 4 5 6 4 2 1 1 3 5 8 9 8 6 4 2
0 1 2 3 4 4 6 8 6 4 4 2 1 1 3 4 5 5 7 8 9 8 8 6 5 5 6 7 7 8 7 5 2 0 2 5 8 11 13 12 9 5 4
0 0 2 3 3 2 3 5 6 5 5 4 2 3 4 5 4 3 4 6 7 8 8 9 9 9 10 11 11 10 8 4 1 1 3 8 12 14 15 14 10 6 6
0 1 3 5 5 3 3 4 6 7 7 7 6 6 6 5 4 3 4 6 8 8 9 12 12 12 12 12 13 12 9 6 3 2 5 10 14 15 15 14 10 7 6
1 2 4 6 6 5 4 5 7 9 10 11 10 9 7 6 5 6 7 9 9 8 9 12 13 12 11 11 11 10 8 7 5 5 7 12 15 16 16 16 12 9 7
2 3 5 7 7 7 7 6 7 8 10 11 11 11 9 8 7 9 12 11 8 7 9 10 11 11 11 10 9 8 6 6 6 6 10 14 16 17 16 15 12 9 9
4 4 6 7 9 9 9 8 6 6 7 9 10 10 10 10 9 11 14 12 8 7 8 9 10 11 12 11 9 7 5 5 6 9 12 17 19 18 15 12 9 8 8
5 5 5 8 11 12 11 9 7 6 9 9 9 10 10 10 10 11 13 12 9 10 11 11 10 9 10 11 9 8 7 6 8 13 16 19 20 19 15 11 8 7 7
4 5 5 7 11 15 14 12 9 7 9 10 9 10 10 9 10 11 11 10 11 13 15 14 11 9 8 9 9 8 9 10 13 17 19 19 18 16 13 11 10 8 7
3 5 5 5 10 16 18 16 12 8 8 10 11 9 8 8 10 11 11 10 12 14 13 13 12 10 8 7 8 9 11 14 16 18 20 21 19 17 14 13 13 12 11
5 7 7 6 10 17 20 19 16 13 13 14 14 11 7 7 9 11 12 13 13 12 11 12 13 12 10 8 9 11 13 17 19 19 21 23 24 22 18 15 16 17 16
12 14 14 12 14 19 20 19 18 17 17 17 15 12 8 7 8 9 10 12 13 11 11 13 15 14 12 11 12 13 16 18 20 21 23 23 24 24 20 16 17 18 18
21 24 24 21 21 23 21 19 19 18 16 15 15 12 9 8 8 8 8 9 11 12 13 15 16 15 13 13 14 15 16 17 18 21 23 22 20 21 20 18 18 18 17
28 29 29 28 27 25 22 19 18 17 15 14 14 12 10 9 8 8 8 8 10 12 14 16 16 14 13 13 14 15 15 14 14 16 19 18 17 18 19 19 20 19 18
27 29 31 33 32 28 22 17 15 16 16 15 15 14 12 9 8 9 10 9 10 12 13 14 15 13 12 12 12 14 14 13 11 11 13 14 16 17 17 17 18 20 21
25 29 35 39 39 32 24 18 16 16 16 15 14 15 13 11 10 11 13 13 13 13 13 13 14 14 13 11 11 12 14 14 13 12 11 12 14 15 15 14 15 19 22
24 29 39 46 45 38 30 25 23 21 19 15 13 14 15 14 13 14 16 17 17 16 15 15 16 16 16 13 11 12 15 16 16 14 11 10 11 12 11 12 16 20 22
23 29 41 50 49 41 35 32 28 26 22 16 12 13 15 16 16 16 17 18 19 18 18 17 16 17 18 16 13 13 16 17 16 13 11 8 8 9 9 11 17 21 22

GEFSSE_con_probscp_324.txt.gz
Probability
0 0 1 2 4 3 2 2 1 0 1 1 1 0 0 1 3 5 5 5 4 2 1 0 0 1 1 0 0 0 0 0 0 0 0 0 0 0 0 1 1 1 1
0 0 1 2 4 4 3 2 1 1 0 0 0 0 0 0 2 4 4 3 2 1 0 0 1 2 2 1 0 0 0 0 0 0 0 0 0 0 0 0 1 2 3
0 0 1 2 3 4 4 2 2 1 1 1 0 0 1 1 1 2 2 1 0 0 0 0 1 2 2 1 0 0 0 0 0 0 0 0 0 0 0 1 2 3 5
0 0 1 2 3 4 4 2 2 2 2 2 1 1 2 2 1 1 2 1 1 1 0 0 1 2 2 1 0 0 0 0 0 0 0 0 0 0 0 1 2 4 4
0 0 1 3 4 4 4 2 1 1 2 2 2 3 3 2 2 3 3 3 3 3 2 1 1 1 1 1 1 0 0 0 0 0 0 0 0 0 0 1 1 3 3
0 0 2 5 6 6 5 4 3 2 2 2 3 4 2 1 2 3 3 3 3 3 3 3 3 3 2 2 2 2 1 1 0 0 0 0 0 0 0 1 1 2 2
0 0 2 6 7 7 7 6 5 4 4 4 4 4 3 2 2 2 2 3 3 3 3 4 5 4 4 3 4 4 4 2 0 0 0 0 0 0 0 1 2 1 1
0 0 2 5 7 7 7 7 5 4 5 6 5 5 4 4 4 4 3 3 3 3 5 6 7 6 5 4 4 6 5 3 1 0 0 0 0 1 1 1 1 1 0
0 0 1 2 4 5 5 4 3 4 5 6 6 5 5 6 6 5 5 4 3 4 7 10 10 9 7 6 7 8 7 4 1 0 0 0 2 3 3 1 1 1 0
0 0 0 0 1 1 1 1 1 2 4 5 5 5 5 5 4 4 5 5 6 7 10 12 13 13 13 12 13 12 9 4 1 0 0 1 3 5 5 3 2 2 1
0 0 0 0 0 0 0 0 0 1 3 4 5 5 3 2 1 2 3 7 10 11 13 14 14 15 16 16 15 13 9 4 2 1 0 1 4 5 5 3 2 2 2
0 0 0 0 0 0 0 0 0 1 1 2 4 4 2 1 0 0 2 6 9 11 12 13 13 13 14 13 12 10 7 5 4 2 2 3 6 7 6 4 2 2 3
0 0 1 0 0 0 0 0 1 1 0 0 2 3 3 2 1 0 1 2 4 5 6 8 9 9 8 8 8 7 5 5 5 4 3 6 9 10 8 6 4 4 4
0 1 1 1 0 0 0 0 1 0 0 0 1 1 2 2 1 1 1 1 1 2 3 4 5 5 5 5 6 5 4 4 5 4 4 7 10 11 9 7 5 6 6
1 2 3 2 1 0 1 1 1 0 0 1 1 1 1 1 1 1 2 2 2 3 3 3 4 4 4 4 5 4 3 3 4 3 4 7 9 10 9 7 6 7 7
2 3 4 4 2 1 2 3 2 1 1 1 2 1 0 1 2 3 3 3 3 3 3 3 3 3 3 3 3 3 3 3 3 3 4 5 7 9 9 8 7 7 7
1 2 3 3 2 2 3 4 4 2 1 1 1 0 0 1 2 3 3 3 3 3 3 3 3 3 3 3 2 3 3 3 3 4 4 5 7 8 9 10 9 8 6
1 2 4 4 4 4 4 4 3 1 0 0 0 1 1 2 2 2 2 3 3 3 3 3 3 3 3 2 1 2 3 4 4 5 6 6 6 7 8 10 11 9 6
2 3 5 6 6 6 5 4 2 1 1 1 1 2 3 3 2 1 1 3 3 3 3 3 3 3 3 2 1 1 2 4 5 6 6 6 6 6 7 8 10 9 6
3 3 4 5 7 7 6 5 3 2 2 2 3 3 3 4 3 2 1 3 3 3 3 3 3 3 4 3 1 1 2 3 4 4 5 5 6 7 7 7 7 7 6
4 4 5 6 8 8 8 7 5 4 4 4 3 3 3 4 4 3 3 3 3 3 3 3 3 4 4 3 1 1 1 1 1 2 2 3 4 6 7 7 6 5 5
6 6 8 11 10 9 9 8 7 6 6 5 4 3 4 5 5 4 3 3 3 3 3 3 3 3 3 2 1 1 1 1 1 1 1 1 1 3 6 8 7 6 5
9 8 10 13 13 11 10 9 8 8 7 6 5 4 4 5 4 3 3 4 4 4 4 4 3 2 2 2 2 2 2 2 2 2 1 1 0 0 2 5 7 6 6
11 10 11 14 15 13 12 12 10 8 7 6 5 5 5 4 2 1 2 4 5 5 5 4 3 2 2 3 3 3 3 4 4 4 3 2 1 0 0 2 4 5 5
14 13 14 16 17 16 16 15 12 8 6 6 6 6 5 2 0 0 1 3 4 4 4 4 3 4 5 4 4 4 4 5 4 5 4 2 1 0 0 0 1 2 3
15 16 16 18 19 18 17 16 12 7 5 6 6 6 4 1 0 1 2 3 3 3 3 3 4 6 6 6 5 4 5 5 4 4 2 1 0 0 0 0 0 1 1

GEFSSE_con_probscp_330.txt.gz
Probability
0 0 1 2 1 0 0 0 0 0 0 1 1 0 1 2 2 1 0 0 0 0 0 1 1 1 0 0 0 0 0 0 0 0 0 0 0 0 0 0 0 0 0
1 0 1 2 1 0 0 0 0 0 0 1 1 0 0 1 1 0 0 0 0 0 0 0 0 0 0 0 0 0 0 0 0 0 0 0 0 0 0 0 0 0 0
2 1 1 2 1 0 1 1 1 0 0 1 1 0 0 0 0 0 0 0 0 0 0 0 0 0 0 0 1 0 0 0 1 1 1 0 0 0 0 1 1 0 0
2 1 1 2 1 0 2 3 2 1 0 0 0 0 0 0 0 0 0 0 0 0 0 0 0 0 0 0 0 0 0 0 1 1 1 0 0 0 1 2 2 1 1
1 1 1 2 1 0 1 2 2 1 0 0 0 0 0 0 0 0 0 0 0 0 0 0 1 0 0 0 0 0 0 1 1 0 0 0 0 0 1 2 2 2 2
0 1 2 3 1 0 0 0 1 1 0 0 0 0 0 0 0 0 0 0 0 0 0 0 0 0 0 0 0 0 0 0 0 0 0 0 0 0 1 1 1 2 2
0 1 2 3 2 1 0 0 0 0 0 1 1 1 1 0 0 0 0 0 0 0 0 0 0 0 0 1 2 2 1 0 0 0 0 0 1 1 1 0 0 1 1
0 0 1 2 2 2 1 1 0 0 0 1 2 2 1 1 1 1 1 1 1 1 1 2 3 2 2 3 5 5 2 0 0 0 0 1 2 2 1 0 0 0 0
0 0 0 1 1 2 2 1 0 0 0 1 1 1 1 2 2 2 3 3 3 4 4 5 6 6 5 6 8 8 4 1 0 1 0 1 2 3 2 0 0 0 0
0 0 0 0 0 1 1 1 0 1 1 0 0 1 2 2 2 2 3 4 5 6 7 8 8 7 6 7 8 7 4 1 1 1 1 2 3 3 2 1 1 1 1
0 0 0 0 0 0 0 0 0 1 1 0 0 1 1 1 0 1 2 3 3 4 6 7 7 6 5 5 6 6 4 2 2 2 3 4 5 5 3 1 1 2 3
0 0 0 0 0 0 0 0 0 1 1 0 0 0 0 0 0 0 1 2 2 2 3 4 4 4 3 2 3 4 3 2 2 3 4 5 7 6 3 1 1 2 4
0 0 0 0 0 0 0 0 0 0 0 0 0 0 0 0 0 0 0 1 1 1 1 1 1 1 1 1 1 2 2 2 2 3 3 5 6 5 3 1 0 1 3
0 0 0 0 0 0 0 0 0 0 0 0 0 0 0 0 0 0 0 0 0 0 0 0 0 0 0 1 2 2 2 2 2 3 3 4 6 6 4 3 2 3 4
0 0 0 0 0 0 0 0 0 0 0 0 0 0 0 0 0 0 0 0 0 0 0 0 0 0 0 1 3 3 3 3 2 3 4 5 5 6 6 6 6 6 6
1 0 0 0 0 0 0 0 0 0 0 0 0 0 0 0 0 0 0 0 0 0 0 0 0 1 1 2 3 3 3 3 3 3 3 4 3 4 6 7 7 8 8
1 0 0 0 0 0 0 0 0 0 0 0 0 0 0 0 0 0 0 0 0 0 0 0 1 2 3 3 3 3 3 3 3 3 2 2 1 2 4 5 6 7 8
1 0 0 0 0 0 0 0 0 0 0 0 0 0 0 0 0 0 0 0 1 0 0 1 2 3 3 3 3 3 3 3 2 1 1 1 0 0 2 3 3 6 9
1 1 1 0 0 0 0 0 0 0 0 0 0 0 0 0 0 0 0 0 0 0 0 1 2 3 3 3 3 3 3 2 1 0 0 0 0 0 0 1 2 5 8
2 2 2 1 0 0 0 0 0 0 0 0 0 0 0 0 1 1 1 1 1 1 1 1 3 3 3 3 3 2 1 1 1 1 1 1 0 0 0 0 1 3 6
3 3 2 1 0 0 0 0 0 0 0 0 0 0 0 1 2 2 2 2 2 2 2 3 3 3 3 2 1 1 0 1 2 2 2 2 1 0 0 0 1 1 2
4 3 2 1 1 1 1 0 0 0 0 1 1 1 1 1 2 2 3 3 3 3 3 3 3 2 2 1 0 1 1 2 3 3 3 2 1 0 0 0 0 0 1
4 4 3 3 3 3 2 1 0 1 1 2 2 2 2 3 3 2 2 2 2 2 2 2 2 2 2 1 1 2 3 5 5 4 3 2 1 0 0 0 0 0 0
5 5 5 4 4 3 3 2 1 2 2 3 3 3 3 2 2 1 1 1 1 1 1 1 1 2 3 2 2 3 4 6 6 4 2 1 0 0 0 0 0 0 0
8 8 6 4 3 2 3 3 3 2 3 3 3 3 1 1 1 0 0 0 0 0 0 1 3 4 4 4 4 4 6 7 5 3 2 2 1 1 0 0 0 0 0
10 9 7 3 1 1 2 3 4 3 3 3 3 2 1 0 0 1 1 1 0 0 1 2 4 5 6 5 5 6 8 8 5 2 2 3 2 2 1 0 0 0 0

GEFSSE_con_probscp_336.txt.gz
Probability
0 0 0 0 0 0 0 0 0 0 0 0 0 0 0 0 1 1 0 0 0 1 2 2 1 1 2 3 3 2 1 0 0 0 0 0 1 2 2 1 0 1 1
0 0 0 0 0 0 0 0 0 0 0 0 0 0 0 1 2 2 1 0 0 1 2 1 0 0 1 2 2 1 0 0 0 0 0 0 0 1 1 1 0 1 3
0 0 0 0 0 1 1 0 0 0 0 0 0 0 1 1 3 3 2 1 0 1 1 0 0 0 0 0 0 0 0 0 0 0 0 0 0 0 0 0 1 2 3
0 0 0 0 0 0 1 1 0 0 0 0 0 0 1 2 3 3 2 1 0 0 0 0 0 0 0 0 0 0 0 0 0 0 0 0 1 1 1 1 2 3 3
0 0 0 0 0 0 0 0 0 0 0 0 0 0 1 2 3 3 3 1 0 0 0 0 0 0 0 0 0 0 0 0 0 0 0 1 2 2 2 3 4 4 4
0 0 1 1 1 0 0 0 0 0 0 0 0 0 0 1 2 2 2 2 1 0 0 0 0 0 0 0 0 0 0 0 0 0 0 1 2 3 3 3 4 5 6
0 0 1 2 2 1 0 0 0 0 0 0 0 0 0 0 1 1 1 1 1 0 0 0 0 0 0 0 0 0 0 0 0 0 0 1 2 3 3 3 3 4 5
0 0 0 1 2 2 1 0 0 0 0 0 0 0 0 0 1 1 1 1 1 1 1 1 1 1 1 1 0 0 0 0 0 0 0 0 2 4 4 3 2 2 3
0 0 0 0 1 1 1 1 0 0 0 0 0 0 0 1 2 2 3 3 3 3 3 3 2 2 2 2 1 0 0 0 0 0 0 1 3 5 4 3 2 1 1
0 0 0 0 0 1 2 1 0 0 0 1 1 1 1 2 2 3 3 4 3 4 4 4 3 3 4 3 1 1 1 0 0 0 1 2 4 5 4 3 3 1 1
0 0 0 0 0 1 2 1 0 0 0 1 2 2 2 2 1 1 2 3 2 3 3 3 3 4 4 3 2 2 1 1 1 1 2 3 4 5 4 3 3 3 2
0 0 0 0 0 1 1 0 0 0 0 1 1 1 1 1 1 1 2 2 1 1 1 2 3 3 3 3 3 3 3 2 2 3 3 4 5 6 5 4 3 3 3
1 0 0 0 0 0 0 0 0 0 0 0 0 0 0 1 2 3 3 2 1 1 1 1 2 2 2 2 3 4 3 3 3 3 4 5 6 6 5 4 3 4 4
2 1 0 0 1 1 1 0 0 0 0 0 0 0 0 2 3 3 2 1 1 1 1 1 1 2 2 3 3 3 3 3 3 3 4 6 8 8 6 4 4 5 4
2 1 0 0 1 2 1 0 0 0 0 0 0 0 0 1 2 2 1 0 1 1 1 1 2 3 3 3 3 3 3 3 3 3 4 6 9 9 7 5 6 6 5
2 1 1 0 1 1 1 0 0 0 0 0 0 0 0 1 3 3 1 1 2 2 2 2 3 3 3 3 3 3 3 3 3 3 3 5 8 9 7 6 6 6 6
2 2 1 0 0 0 0 0 0 1 1 1 1 1 1 2 3 3 2 2 3 4 4 3 3 2 3 3 3 3 3 3 3 4 4 4 6 8 7 6 6 6 6
1 1 1 0 0 0 0 0 1 2 3 3 4 3 2 2 2 2 2 3 4 5 5 4 2 1 1 2 3 3 3 3 4 4 4 4 5 6 7 6 5 5 6
1 1 0 0 0 0 1 1 1 3 4 5 5 4 2 2 2 3 3 4 6 6 6 4 2 1 1 1 3 3 3 3 3 4 4 4 5 6 6 5 4 5 6
3 3 2 1 1 1 2 2 3 4 5 5 5 3 3 3 3 3 3 4 5 6 5 3 3 3 2 2 2 3 3 4 4 4 4 3 4 4 4 4 4 4 6
6 6 6 4 3 3 3 4 4 4 4 4 4 4 3 3 3 3 3 4 5 5 3 1 2 3 3 2 2 2 2 4 5 5 5 3 2 1 1 2 2 4 5
6 7 9 8 6 5 5 6 6 4 3 4 5 5 4 4 3 3 3 3 4 4 1 1 1 1 2 2 2 2 2 4 5 5 5 3 1 0 0 1 2 4 5
4 7 10 10 9 10 10 9 7 6 6 7 7 7 6 5 4 3 3 4 5 4 2 2 1 2 3 4 4 4 4 4 5 5 4 2 2 2 2 2 3 5 6
2 6 11 13 14 15 15 12 10 9 9 9 9 9 7 5 4 3 4 6 7 6 4 3 3 5 7 8 9 8 6 6 6 6 5 4 3 4 3 4 4 4 5
4 7 13 17 19 18 17 15 12 10 9 9 8 8 7 6 4 4 5 8 9 8 6 5 4 7 9 10 12 12 9 8 8 7 7 7 5 3 3 4 4 3 3
6 9 14 20 22 19 18 16 12 9 8 7 7 7 7 6 5 4 5 7 8 8 7 6 5 6 8 10 12 12 11 9 8 8 9 9 7 3 2 2 2 2 3

GEFSSE_con_probscp_342.txt.gz
Probability
1 1 1 1 0 0 0 0 0 0 0 0 1 1 1 0 0 0 0 0 0 0 0 0 0 0 0 0 0 2 4 6 6 5 3 2 1 0 1 1 1 0 0
1 1 2 2 1 0 0 0 0 0 0 0 0 0 0 0 0 1 1 1 0 0 0 0 0 0 0 1 1 3 5 6 6 3 2 1 1 0 0 0 0 0 1
1 2 3 2 1 0 0 0 0 0 0 0 0 0 0 0 1 2 2 1 0 0 0 0 0 0 1 2 2 3 4 5 4 2 1 2 2 1 1 1 0 1 2
1 2 2 3 2 1 0 0 0 0 0 0 0 0 0 1 2 3 2 1 0 0 0 0 0 0 1 2 2 2 2 2 2 1 1 1 1 2 3 3 1 1 2
0 1 3 4 3 1 0 0 0 0 0 1 1 0 0 1 2 3 2 1 0 0 0 0 0 0 0 1 1 1 0 0 0 0 0 0 1 3 5 5 3 2 2
0 1 4 5 3 1 1 1 1 1 1 2 2 1 1 0 1 2 2 1 0 0 0 0 0 0 0 0 0 0 0 0 0 0 0 1 2 4 7 6 4 3 4
0 2 4 4 3 2 3 3 3 3 3 3 3 3 2 1 0 1 1 0 0 0 0 0 0 0 0 0 0 0 0 1 0 0 1 3 5 7 9 8 6 5 6
0 1 4 4 4 5 5 6 6 6 5 4 3 3 2 1 0 1 1 1 0 0 0 0 0 0 0 0 0 0 1 2 1 0 2 4 7 10 11 11 9 7 7
0 1 2 3 3 4 5 5 5 5 5 4 3 3 2 2 1 2 2 2 1 1 0 1 1 1 1 0 0 1 2 3 2 0 2 5 8 10 12 13 11 7 6
0 0 1 1 1 1 2 3 3 2 2 2 2 3 4 4 3 3 2 2 2 2 2 2 3 5 6 5 5 5 5 5 3 1 3 8 10 10 12 12 10 8 6
0 0 0 0 0 0 0 1 1 0 0 0 1 4 5 4 3 2 3 4 5 6 6 6 8 10 10 10 13 12 9 7 6 5 8 11 13 13 12 12 10 9 8
0 0 0 0 0 0 0 0 0 0 0 0 1 3 5 4 3 2 4 7 10 10 10 11 13 12 11 11 13 14 10 8 8 8 11 14 15 15 15 13 12 11 10
1 0 1 1 1 0 0 1 2 1 0 1 1 2 4 4 3 1 3 7 10 11 11 13 14 11 9 8 9 9 8 7 7 7 12 16 15 14 15 15 14 13 12
2 2 2 3 2 1 1 2 3 3 2 2 2 2 3 4 3 1 2 4 6 9 11 11 11 10 7 7 6 6 6 5 4 6 12 16 15 12 13 13 14 14 14
5 4 4 5 5 3 2 2 2 3 4 4 3 3 4 5 4 3 2 3 4 7 9 8 7 7 6 6 6 6 5 4 3 5 10 14 14 11 11 12 12 13 13
7 7 6 6 6 6 4 2 2 2 4 5 5 6 7 7 8 7 4 3 5 6 8 7 5 5 5 6 6 6 5 4 3 4 6 10 13 12 11 11 11 11 11
10 10 8 5 5 6 5 3 2 2 3 4 5 8 10 10 11 10 6 4 5 8 9 7 5 4 5 6 6 7 7 6 4 4 5 9 12 13 11 10 10 10 10
15 15 10 6 6 6 5 4 2 1 2 3 5 8 10 10 11 11 7 6 7 9 10 8 7 5 5 6 6 7 9 8 6 4 6 9 12 12 11 11 9 8 8
19 19 17 12 10 9 7 6 4 2 4 5 6 8 9 10 12 11 10 9 10 10 10 9 9 8 8 6 5 6 8 8 6 5 5 8 11 11 9 10 10 8 7
22 25 24 20 18 15 13 12 10 9 10 10 10 11 11 11 12 12 11 12 12 12 11 9 9 10 11 9 6 5 6 6 7 7 6 8 11 11 9 9 11 10 10
26 28 29 26 25 23 22 21 19 17 16 15 15 17 17 16 14 12 12 14 14 12 11 10 9 10 11 10 8 6 5 6 7 9 9 10 11 11 10 12 14 13 13
29 30 30 30 31 32 30 27 23 21 21 20 20 23 24 21 16 13 13 13 13 12 12 13 13 12 11 10 9 6 5 5 6 8 11 13 12 11 11 13 16 17 17
30 31 33 36 38 39 35 30 26 25 25 24 24 25 26 23 18 15 14 13 12 14 15 15 16 15 13 11 10 8 6 6 6 7 10 11 12 12 10 10 14 19 22
26 31 37 42 43 41 37 32 28 26 26 26 26 25 25 25 22 17 15 14 14 17 19 18 17 17 15 13 12 12 12 12 11 10 9 9 10 12 10 8 11 18 22
20 27 36 42 43 40 36 32 30 27 25 25 24 23 24 24 23 20 19 19 18 19 21 21 19 18 16 14 15 16 18 18 17 14 11 8 9 10 9 7 10 16 21
17 25 34 40 42 40 35 32 31 29 26 24 23 22 22 22 22 22 24 24 21 19 21 22 20 17 15 14 15 17 19 20 19 16 12 10 10 9 7 8 12 17 21